Regional Weather Roundup
Issued by NWS

Home | Current Version | Previous Version | Text Only | Print | Product List | Glossary On
Versions: 1 2 3 4 5 6 7 8 9 10 11 12 13 14 15 16 17 18 19 20 21 22 23 24 25 26 27 28 29 30 31 32 33 34 35 36 37 38 39 40 41 42 43 44
000
ASUS44 KLIX 230707
RWRLA
LOUISIANA WEATHER ROUNDUP
NATIONAL WEATHER SERVICE NEW ORLEANS LA
100 AM CST FRI FEB 23 2018

NOTE: "FAIR" INDICATES FEW OR NO CLOUDS BELOW 12,000 FEET WITH NO
      SIGNIFICANT WEATHER AND/OR OBSTRUCTIONS TO VISIBILITY.
      SKY/WX - SKY CONDITION AND SIGNIFICANT WEATHER.
      TMP - AIR TEMPERATURE.    DP   - DEWPOINT TEMPERATURE.
      RH  - RELATIVE HUMIDITY.  PRES - PRESSURE.
      HX  - HEAT INDEX.         WCI  - WIND CHILL INDEX.

*  THESE STATIONS ARE NOT NWS OR FAA STATIONS AND ARE NOT UNDER
   NWS QUALITY CONTROL.

LAZ040-048-061>063-065-066-069-230800-
SOUTHEAST LOUISIANA

CITY           SKY/WX    TMP DP  RH WIND       PRES   REMARKS
N.O. INTL ARPT FAIR      72  70  93 SE8       30.28F
N.O. LAKEFRONT CLOUDY    71  68  90 SE10      30.29S
N.O. DOWNTOWN* FAIR      72  68  87 VRB5      30.29F
RESERVE*       FAIR      72  68  88 SE6       30.29S
SLIDELL        CLOUDY    71  68  90 E3        30.29F
BATON ROUGE    CLOUDY    73  68  84 SE9       30.27S
BOOTHVILLE     FAIR      67  66  97 E6        30.29F FOG
BELLE CHASSE   FAIR      72  70  93 SE10      30.28
BOGALUSA*      FAIR      70  66  87 CALM      30.31S
GALLIANO*      FAIR      73  67  83 E5        30.27F
NEW ROADS*     PTSUNNY   71  66  85 SE8       30.26F
GONZALES*      CLOUDY    71  69  93 CALM      30.27S
HAMMOND*       CLOUDY    72  68  88 SE8       30.29S
HOUMA*         FAIR      68  67  96 E5        30.27F
PORT FOURCHON* CLOUDY    73  70  88 E8        30.27F

$$

LAZ041-044-053-054-230800-
SOUTHWEST LOUISIANA

CITY           SKY/WX    TMP DP  RH WIND       PRES   REMARKS
LAKE CHARLES   CLOUDY    73  71  93 S9        30.23S
LAFAYETTE      MOCLDY    72  71  97 S5        30.25F
PATTERSON      CLOUDY    71  70  96 SE5       30.27S
SALT POINT       N/A     69  69 100 SE6       30.24F
NEW IBERIA     CLOUDY    69  67  93 SE6       30.26S FOG
CHENAULT AIRPK CLOUDY   N/A N/A N/A SE9       30.23F

$$

LAZ027-028-230800-
CENTRAL LOUISIANA

CITY           SKY/WX    TMP DP  RH WIND       PRES   REMARKS
FORT POLK      MOCLDY    71  69  94 S8        30.23S
ALEXANDRIA INT CLOUDY    68  67  96 S6        30.23S
ALEXANDRIA     CLOUDY    67  67 100 CALM      30.25S

$$

LAZ001-002-230800-
NORTHWEST LOUISIANA

CITY           SKY/WX    TMP DP  RH WIND       PRES   REMARKS
SHREVEPORT     LGT RAIN  55  55 100 CALM      30.20F
BARKSDALE AFB  CLOUDY    54  54 100 NW8       30.21S THUNDER
DTN SHREVEPORT   N/A    N/A N/A N/A MISG      30.21S

$$

LAZ014-016-230800-
NORTHEAST LOUISIANA

CITY           SKY/WX    TMP DP  RH WIND       PRES   REMARKS
MONROE         FAIR      56  55  97 CALM      30.24F
TALLULAH       FAIR      70  67  90 S9        30.27R

$$





USA.gov is the U.S. government's official web portal to all federal, state and local government web resources and services.